Location: Holcomb Observatory
(44.4922°N, 73.1654°W)
Time: 18:59:07
(UTC-04:00)

Cosmos 2360 Rocket - Visible Passes

Search period start: 19 April 2018 00:00
Search period end: 29 April 2018 00:00
Orbit: 835 x 843 km, 71.0° (Epoch: 19 April)

Date Brightness Start Highest point End Pass type
(mag) Time Alt. Az. Time Alt. Az. Time Alt. Az.
19 Apr 5.3 03:36:03 10° N 03:39:13 15° NE 03:42:23 10° ENE visible
19 Apr 2.5 05:18:36 10° NNW 05:24:15 74° ENE 05:29:52 10° SSE visible
19 Apr 2.5 20:10:55 10° SSW 20:16:32 76° WNW 20:22:12 10° NNE visible
19 Apr 5.3 21:58:20 10° WNW 22:01:33 15° NW 22:04:46 10° N visible
20 Apr 5.3 03:20:30 10° N 03:23:28 14° NE 03:26:26 10° ENE visible
20 Apr 2.6 05:02:55 10° NNW 05:08:33 70° ENE 05:14:09 10° SSE visible
20 Apr 5.3 21:42:24 10° W 21:45:47 16° NW 21:49:12 10° N visible
21 Apr 5.3 03:04:56 10° N 03:07:42 14° NE 03:10:28 10° ENE visible
21 Apr 2.7 04:47:14 10° NNW 04:52:51 66° ENE 04:58:26 10° SE visible
21 Apr 5.2 21:26:29 10° W 21:30:02 17° NW 21:33:36 10° N visible
22 Apr 5.3 02:49:23 10° NNE 02:51:57 13° NE 02:54:29 10° ENE visible
22 Apr 2.7 04:31:33 10° NNW 04:37:09 62° ENE 04:42:43 10° SE visible
22 Apr 5.2 21:10:35 10° W 21:14:17 18° NW 21:18:01 10° N visible
23 Apr 5.3 02:33:53 10° NNE 02:36:10 12° NE 02:38:27 10° ENE visible
23 Apr 2.8 04:15:52 10° NNW 04:21:27 58° ENE 04:26:59 10° SE visible
23 Apr 5.1 20:54:41 10° W 20:58:32 18° NW 21:02:24 10° N visible
24 Apr 5.3 02:18:25 10° NNE 02:20:24 12° NE 02:22:24 10° ENE visible
24 Apr 2.9 04:00:12 10° NNW 04:05:45 55° ENE 04:11:15 10° SE visible
24 Apr 5.1 20:38:49 10° W 20:42:47 19° NW 20:46:47 10° N visible
25 Apr 5.3 02:02:59 10° NNE 02:04:39 11° NE 02:06:18 10° NE visible
25 Apr 3.0 03:44:32 10° NNW 03:50:02 52° ENE 03:55:31 10° SE visible
25 Apr 5.0 20:22:56 10° W 20:27:03 20° NW 20:31:11 10° N visible
26 Apr 5.3 01:47:39 10° NNE 01:48:52 11° NE 01:50:05 10° NE visible
26 Apr 3.1 03:28:52 10° NNW 03:34:20 49° ENE 03:39:46 10° SE visible
26 Apr 3.1 05:13:26 10° NW 05:18:01 26° WSW 05:22:36 10° SSW visible
27 Apr 5.3 01:32:36 10° NNE 01:33:05 10° NE 01:33:36 10° NE visible
27 Apr 3.2 03:13:12 10° NNW 03:18:37 46° ENE 03:24:01 10° SE visible
27 Apr 3.0 04:57:40 10° NW 05:02:22 28° WSW 05:07:03 10° SSW visible
28 Apr 3.3 02:57:32 10° NNW 03:02:55 44° ENE 03:08:16 10° SE visible
28 Apr 3.0 04:41:54 10° NW 04:46:43 30° WSW 04:51:30 10° SSW visible
